Location: Sungai Jaoh
(2.9167°N, 113.9167°E)
Time: 14:50:40
(UTC+00:00)

ALOS - Pass Details

Date: 30 November 2020
Orbit: 682 x 686 km, 97.9° (Epoch: 26 January)

Event Time Altitude Azimuth Distance (km) Brightness Sun altitude
Exits shadow 21:05:16 16° 341° (NNW) 1,727 4.0 -16.9°
Maximum altitude 21:08:24 36° 282° (WNW) 1,082 2.8 -16.1°
Drops below altitude 10° 21:12:38 10° 216° (SW) 2,125 4.7 -15.2°
Sets 21:15:02 0° 207° (SSW) 3,041 5.6 -14.6°
